When you browse on this site, cookies collect data to enhance your experience and personalize the content and advertising you see.
Visit our Privacy Policy to learn more. By continuing to use the site, you agree to this use of cookies and data.
  • In Hungary
  • List of Countries
  • For 7 days
  • Water Temperature
  • Satellite Maps
  • Weather Map
  • News
  • Weather Widgets
  • user-avatar
    Login

    Hourly Weather Prägraten

    Today, 19 December, Wednesday

    Time Temperature Precipitation Wind Pressure Humidity
    00:00 -13°C° 0 mm 2 mps 575 mmHg 58%
    01:00 -12°C° 0 mm 1 mps 574 mmHg 57%
    02:00 -12°C° 0 mm 1 mps 575 mmHg 55%
    03:00 -13°C° 0 mm 2 mps 575 mmHg 54%
    04:00 -13°C° 0 mm 2 mps 575 mmHg 52%
    05:00 -12°C° 0 mm 2 mps 575 mmHg 52%
    06:00 -12°C° 0 mm 2 mps 575 mmHg 52%
    07:00 -10°C° 0 mm 1 mps 575 mmHg 59%
    08:00 -9°C° 0 mm 1 mps 575 mmHg 60%
    09:00 -7°C° 0 mm 1 mps 576 mmHg 61%
    10:00 -6°C° 0 mm 1 mps 577 mmHg 61%
    11:00 -6°C° 0 mm 1 mps 577 mmHg 63%
    12:00 -4°C° 0 mm 1 mps 577 mmHg 65%
    13:00 -3°C° 0 mm 1 mps 577 mmHg 67%
    14:00 -4°C° 0 mm 1 mps 576 mmHg 70%
    15:00 -6°C° 0 mm 1 mps 575 mmHg 72%
    16:00 -7°C° 0 mm 1 mps 574 mmHg 75%
    17:00 -8°C° 0 mm 1 mps 574 mmHg 75%
    18:00 -12°C° 0 mm 2 mps 573 mmHg 75%
    19:00 -13°C° 0 mm 2 mps 572 mmHg 75%
    20:00 -13°C° 0 mm 2 mps 572 mmHg 76%
    21:00 -13°C° 0 mm 2 mps 572 mmHg 77%
    22:00 -13°C° 0 mm 2 mps 572 mmHg 79%
    23:00 -13°C° 0.2 mm 2 mps 573 mmHg 81%

    Tomorrow, 20 December, Thursday

    Time Temperature Precipitation Wind Pressure Humidity
    00:00 -12°C° 0.2 mm 2 mps 573 mmHg 84%
    01:00 -10°C° 0.2 mm 1 mps 573 mmHg 87%
    02:00 -10°C° 0.4 mm 1 mps 573 mmHg 89%
    03:00 -9°C° 0.4 mm 1 mps 573 mmHg 91%
    04:00 -9°C° 0.4 mm 1 mps 574 mmHg 93%
    05:00 -8°C° 0.4 mm 1 mps 574 mmHg 93%
    06:00 -8°C° 0.4 mm 1 mps 574 mmHg 93%
    07:00 -8°C° 0.4 mm 1 mps 574 mmHg 93%
    08:00 -8°C° 0.3 mm 1 mps 575 mmHg 93%
    09:00 -7°C° 0.3 mm 1 mps 575 mmHg 92%
    10:00 -7°C° 0.3 mm 1 mps 576 mmHg 91%
    11:00 -6°C° 0.2 mm 1 mps 576 mmHg 89%
    12:00 -4°C° 0.2 mm 1 mps 576 mmHg 88%
    13:00 -4°C° 0.2 mm 1 mps 576 mmHg 86%
    14:00 -4°C° 0.2 mm 1 mps 576 mmHg 88%
    15:00 -6°C° 0.2 mm 1 mps 576 mmHg 90%
    16:00 -6°C° 0.2 mm 1 mps 576 mmHg 92%
    17:00 -7°C° 0.1 mm 1 mps 576 mmHg 92%
    18:00 -8°C° 0.1 mm 1 mps 576 mmHg 92%
    19:00 -8°C° 0.1 mm 1 mps 576 mmHg 92%
    20:00 -9°C° 0 mm 1 mps 576 mmHg 91%
    21:00 -10°C° 0 mm 1 mps 576 mmHg 90%
    22:00 -11°C° 0 mm 1 mps 576 mmHg 90%
    23:00 -11°C° 0 mm 1 mps 575 mmHg 89%

    Day after tomorrow, 21 December, Friday

    Time Temperature Precipitation Wind Pressure Humidity
    00:00 -11°C° 0 mm 1 mps 575 mmHg 88%
    01:00 -11°C° 0 mm 1 mps 575 mmHg 87%
    02:00 -11°C° 0 mm 1 mps 575 mmHg 87%
    03:00 -11°C° 0 mm 1 mps 575 mmHg 86%
    04:00 -13°C° 0 mm 2 mps 575 mmHg 86%
    05:00 -13°C° 0 mm 2 mps 575 mmHg 84%
    06:00 -13°C° 0 mm 2 mps 575 mmHg 83%
    07:00 -12°C° 0 mm 2 mps 575 mmHg 81%
    08:00 -10°C° 0 mm 2 mps 576 mmHg 80%
    09:00 -9°C° 0 mm 2 mps 576 mmHg 79%
    10:00 -8°C° 0 mm 2 mps 577 mmHg 78%
    11:00 -8°C° 0 mm 3 mps 576 mmHg 78%
    12:00 -7°C° 0 mm 3 mps 576 mmHg 78%
    13:00 -6°C° 0 mm 3 mps 576 mmHg 79%
    14:00 -7°C° 0.1 mm 3 mps 576 mmHg 81%
    15:00 -7°C° 0.1 mm 3 mps 576 mmHg 82%
    16:00 -8°C° 0.1 mm 3 mps 575 mmHg 84%
    17:00 -7°C° 0.1 mm 2 mps 575 mmHg 83%
    18:00 -7°C° 0.1 mm 2 mps 575 mmHg 81%
    19:00 -7°C° 0.1 mm 2 mps 575 mmHg 80%
    20:00 -7°C° 0.1 mm 2 mps 576 mmHg 80%
    21:00 -6°C° 0.1 mm 2 mps 576 mmHg 80%
    22:00 -6°C° 0.1 mm 2 mps 576 mmHg 80%
    23:00 -6°C° 0.1 mm 2 mps 576 mmHg 79%

    22 December, Saturday

    Time Temperature Precipitation Wind Pressure Humidity
    00:00 -6°C° 0.1 mm 2 mps 576 mmHg 79%
    01:00 -6°C° 0.1 mm 2 mps 576 mmHg 79%
    02:00 -6°C° 0 mm 2 mps 575 mmHg 79%
    03:00 -6°C° 0 mm 2 mps 575 mmHg 79%
    04:00 -7°C° 0 mm 2 mps 575 mmHg 79%
    05:00 -6°C° 0 mm 2 mps 575 mmHg 80%
    06:00 -4°C° 0 mm 1 mps 575 mmHg 81%
    07:00 -4°C° 0 mm 1 mps 575 mmHg 82%
    08:00 -3°C° 0 mm 1 mps 576 mmHg 82%
    09:00 -2°C° 0 mm 1 mps 576 mmHg 83%
    10:00 -2°C° 0 mm 1 mps 577 mmHg 84%
    11:00 -1°C° 0 mm 1 mps 577 mmHg 86%
    12:00 -1°C° 0 mm 1 mps 577 mmHg 89%
    13:00 0°C° 0 mm 1 mps 577 mmHg 92%
    14:00 -1°C° 0.1 mm 1 mps 577 mmHg 92%
    15:00 -2°C° 0.1 mm 1 mps 577 mmHg 92%
    16:00 -4°C° 0.1 mm 2 mps 577 mmHg 93%
    17:00 -5°C° 0.3 mm 2 mps 577 mmHg 93%
    18:00 -5°C° 0.3 mm 2 mps 577 mmHg 93%
    19:00 -5°C° 0.3 mm 2 mps 577 mmHg 93%
    20:00 -6°C° 0.3 mm 2 mps 578 mmHg 93%
    21:00 -6°C° 0.3 mm 2 mps 578 mmHg 93%
    22:00 -6°C° 0.3 mm 2 mps 578 mmHg 92%
    23:00 -6°C° 0.3 mm 2 mps 578 mmHg 92%

    23 December, Sunday

    Time Temperature Precipitation Wind Pressure Humidity
    00:00 -6°C° 0.3 mm 2 mps 578 mmHg 92%
    01:00 -6°C° 0.3 mm 2 mps 578 mmHg 91%
    02:00 -7°C° 0.1 mm 2 mps 578 mmHg 90%
    03:00 -7°C° 0.1 mm 2 mps 577 mmHg 90%
    04:00 -7°C° 0.1 mm 2 mps 577 mmHg 89%
    05:00 -7°C° 0.2 mm 2 mps 577 mmHg 88%
    06:00 -4°C° 0.2 mm 1 mps 578 mmHg 88%
    07:00 -4°C° 0.2 mm 1 mps 578 mmHg 88%
    08:00 -3°C° 0.5 mm 1 mps 578 mmHg 88%
    09:00 -3°C° 0.5 mm 1 mps 579 mmHg 88%
    10:00 -2°C° 0.5 mm 1 mps 579 mmHg 89%
    11:00 -2°C° 0.7 mm 1 mps 579 mmHg 90%
    12:00 -1°C° 0.7 mm 1 mps 579 mmHg 91%
    13:00 -1°C° 0.7 mm 1 mps 579 mmHg 92%
    14:00 -2°C° 0.6 mm 1 mps 579 mmHg 93%
    15:00 -2°C° 0.6 mm 1 mps 579 mmHg 93%
    16:00 -3°C° 0.6 mm 1 mps 578 mmHg 94%
    17:00 -3°C° 0.5 mm 1 mps 578 mmHg 93%
    18:00 -3°C° 0.5 mm 1 mps 578 mmHg 93%
    19:00 -4°C° 0.5 mm 1 mps 578 mmHg 93%
    20:00 -4°C° 0.7 mm 1 mps 579 mmHg 93%
    21:00 -4°C° 0.7 mm 1 mps 579 mmHg 93%
    22:00 -6°C° 0.7 mm 2 mps 579 mmHg 93%
    23:00 -6°C° 0.3 mm 2 mps 579 mmHg 93%

    24 December, Monday

    Time Temperature Precipitation Wind Pressure Humidity
    00:00 -4°C° 0.3 mm 1 mps 579 mmHg 93%
    01:00 -4°C° 0.3 mm 1 mps 579 mmHg 92%
    02:00 -4°C° 0.4 mm 1 mps 579 mmHg 92%
    03:00 -4°C° 0.4 mm 1 mps 578 mmHg 92%
    04:00 -4°C° 0.4 mm 1 mps 578 mmHg 92%
    05:00 -4°C° 1.1 mm 1 mps 578 mmHg 92%
    06:00 -4°C° 1.1 mm 1 mps 579 mmHg 93%
    07:00 -6°C° 1.1 mm 2 mps 579 mmHg 94%
    08:00 -5°C° 0.9 mm 2 mps 579 mmHg 94%
    09:00 -5°C° 0.9 mm 2 mps 579 mmHg 93%
    10:00 -5°C° 0.9 mm 2 mps 579 mmHg 93%
    11:00 -5°C° 0.8 mm 2 mps 579 mmHg 93%
    12:00 -5°C° 0.8 mm 2 mps 579 mmHg 93%
    13:00 -5°C° 0.8 mm 2 mps 579 mmHg 93%
    14:00 -5°C° 0.4 mm 2 mps 579 mmHg 93%
    15:00 -6°C° 0.4 mm 2 mps 579 mmHg 94%
    16:00 -6°C° 0.4 mm 2 mps 579 mmHg 94%
    17:00 -7°C° 0.1 mm 2 mps 580 mmHg 94%
    18:00 -7°C° 0.1 mm 2 mps 580 mmHg 94%
    19:00 -8°C° 0.1 mm 2 mps 580 mmHg 94%
    20:00 -8°C° 0 mm 2 mps 580 mmHg 93%
    21:00 -8°C° 0 mm 2 mps 580 mmHg 93%
    22:00 -9°C° 0 mm 2 mps 580 mmHg 93%
    23:00 -10°C° 0 mm 2 mps 580 mmHg 91%
    Show more